CCM6002 LFKJ-EDDB

Flight info

Callsign CCM6002
Flight time 1h 54m
Altitude 32000
Route TORTU DCT GOLAS DCT NESTI DCT SOTOV T101 ANDEC/N0474F410 T101 BETOS/N0474F400 M726 MAH/N0474F410 DCT INPUD/N0476F400 Y102 UPALA M726 ANELA/N0474F410
Aircraft A339/H-VGDW/C

Departure

Time 2026-05-07 19:10
Airport Ajaccio Napoléon Bonaparte airport (LFKJ)

Arrival

Time 2026-05-07 21:05
Airport Berlin Brandenburg Airport (EDDB)
Time Latitude Longitude Altitude Speed Heading
2026-05-07 18:43 41.92060 8.79649 5 ft 0 kts 345°
2026-05-07 18:53 41.92065 8.79650 32 ft 1 kts 357°
2026-05-07 18:53 41.92082 8.79666 32 ft 4 kts 32°
2026-05-07 18:53 41.92105 8.79706 32 ft 6 kts 50°
2026-05-07 18:54 41.92145 8.79757 32 ft 11 kts 34°
2026-05-07 18:54 41.92254 8.79827 32 ft 24 kts 26°
2026-05-07 18:54 41.92431 8.79937 32 ft 30 kts 25°
2026-05-07 18:54 41.92620 8.80053 31 ft 29 kts 25°
2026-05-07 18:55 41.92755 8.80145 32 ft 15 kts 33°
2026-05-07 18:55 41.92830 8.80226 32 ft 10 kts 44°
2026-05-07 18:55 41.92839 8.80239 32 ft 0 kts 45°
2026-05-07 19:02 41.92869 8.80280 33 ft 11 kts 45°
2026-05-07 19:02 41.92935 8.80368 35 ft 13 kts 45°
2026-05-07 19:03 41.92951 8.80398 36 ft 0 kts 57°
2026-05-07 19:03 41.92952 8.80399 36 ft 1 kts 57°
2026-05-07 19:03 41.92959 8.80417 36 ft 3 kts 63°
2026-05-07 19:03 41.92962 8.80445 37 ft 3 kts 83°
2026-05-07 19:04 41.92961 8.80452 37 ft 0 kts 94°
2026-05-07 19:07 41.92955 8.80490 36 ft 14 kts 103°
2026-05-07 19:08 41.92986 8.80631 36 ft 15 kts 34°
2026-05-07 19:08 41.93081 8.80654 37 ft 14 kts
2026-05-07 19:08 41.93142 8.80689 37 ft 6 kts 65°
2026-05-07 19:08 41.93126 8.80708 37 ft 1 kts 149°
2026-05-07 19:09 41.93116 8.80701 37 ft 2 kts 190°
2026-05-07 19:09 41.93114 8.80699 37 ft 0 kts 197°
2026-05-07 19:09 41.93110 8.80696 38 ft 6 kts 202°
2026-05-07 19:10 41.92811 8.80509 35 ft 92 kts 205°
2026-05-07 19:10 41.91975 8.79996 56 ft 164 kts 204°
2026-05-07 19:10 41.90859 8.79292 488 ft 190 kts 206°
2026-05-07 19:10 41.89621 8.78422 911 ft 213 kts 209°
2026-05-07 19:11 41.88276 8.77338 1398 ft 236 kts 213°
2026-05-07 19:11 41.86873 8.76041 1979 ft 251 kts 216°
2026-05-07 19:11 41.85440 8.74608 2567 ft 261 kts 216°
2026-05-07 19:11 41.84170 8.72849 3165 ft 267 kts 237°
2026-05-07 19:12 41.83560 8.70491 3782 ft 272 kts 262°
2026-05-07 19:12 41.83498 8.67980 4362 ft 276 kts 271°
2026-05-07 19:12 41.83600 8.65393 4974 ft 278 kts 273°
2026-05-07 19:12 41.83702 8.62804 5651 ft 276 kts 272°
2026-05-07 19:13 41.83760 8.60247 6286 ft 275 kts 270°
2026-05-07 19:13 41.83780 8.57660 6805 ft 276 kts 269°
2026-05-07 19:13 41.83778 8.55080 7296 ft 278 kts 269°
2026-05-07 19:13 41.83766 8.52482 7791 ft 279 kts 268°
2026-05-07 19:14 41.83751 8.49873 8272 ft 280 kts 268°
2026-05-07 19:14 41.83741 8.47254 8722 ft 282 kts 269°
2026-05-07 19:14 41.84162 8.44677 9137 ft 287 kts 293°
2026-05-07 19:14 41.85333 8.42540 9535 ft 293 kts 317°
2026-05-07 19:15 41.87110 8.41176 9920 ft 299 kts 341°
2026-05-07 19:15 41.89198 8.40868 10130 ft 309 kts
2026-05-07 19:15 41.91301 8.41638 10243 ft 319 kts 22°
2026-05-07 19:15 41.93374 8.42851 10333 ft 330 kts 24°
2026-05-07 19:16 41.95532 8.44028 10418 ft 339 kts 20°
2026-05-07 19:16 41.97790 8.45054 10504 ft 347 kts 17°
2026-05-07 19:16 42.00098 8.45954 10664 ft 351 kts 15°
2026-05-07 19:16 42.02464 8.46802 10890 ft 353 kts 14°
2026-05-07 19:17 42.04869 8.47637 10962 ft 360 kts 14°
2026-05-07 19:17 42.07324 8.48486 10966 ft 368 kts 14°
2026-05-07 19:17 42.09835 8.49359 10964 ft 375 kts 14°
2026-05-07 19:17 42.12382 8.50251 10966 ft 381 kts 14°
2026-05-07 19:18 42.14963 8.51159 10969 ft 386 kts 14°
2026-05-07 19:18 42.17585 8.52084 10970 ft 390 kts 14°
2026-05-07 19:18 42.20225 8.53017 10971 ft 394 kts 14°
2026-05-07 19:18 42.22887 8.53959 10975 ft 397 kts 14°
2026-05-07 19:19 42.25573 8.54909 10981 ft 400 kts 14°
2026-05-07 19:19 42.28280 8.55868 10984 ft 403 kts 14°
2026-05-07 19:19 42.30966 8.56820 10984 ft 405 kts 14°
2026-05-07 19:19 42.33700 8.57790 10986 ft 407 kts 14°
2026-05-07 19:20 42.36449 8.58768 10989 ft 409 kts 14°
2026-05-07 19:20 42.39218 8.59753 10987 ft 412 kts 14°
2026-05-07 19:20 42.41997 8.60742 10990 ft 413 kts 14°
2026-05-07 19:20 42.44785 8.61733 10994 ft 414 kts 14°
2026-05-07 19:21 42.47575 8.62728 10992 ft 415 kts 14°
2026-05-07 19:21 42.50375 8.63729 10992 ft 416 kts 14°
2026-05-07 19:21 42.53141 8.64717 10992 ft 417 kts 14°
2026-05-07 19:21 42.55957 8.65725 10993 ft 418 kts 14°
2026-05-07 19:22 42.58772 8.66733 10993 ft 418 kts 14°
2026-05-07 19:22 42.61586 8.67741 10993 ft 419 kts 14°
2026-05-07 19:22 42.64381 8.68745 11386 ft 407 kts 14°
2026-05-07 19:22 42.67065 8.69709 12125 ft 390 kts 14°
2026-05-07 19:23 42.69637 8.70634 12925 ft 377 kts 14°
2026-05-07 19:23 42.72193 8.71553 13121 ft 385 kts 14°
2026-05-07 19:23 42.74795 8.72489 13261 ft 398 kts 14°
2026-05-07 19:23 42.77509 8.73466 13552 ft 407 kts 14°
2026-05-07 19:24 42.80270 8.74463 14037 ft 411 kts 14°
2026-05-07 19:24 42.83037 8.75463 14518 ft 413 kts 14°
2026-05-07 19:24 42.85825 8.76472 14996 ft 416 kts 14°
2026-05-07 19:24 42.88634 8.77490 15471 ft 419 kts 14°
2026-05-07 19:25 42.91471 8.78519 15930 ft 422 kts 14°
2026-05-07 19:25 42.94317 8.79551 16425 ft 425 kts 14°
2026-05-07 19:25 42.97183 8.80593 16895 ft 428 kts 14°
2026-05-07 19:25 43.00081 8.81646 17364 ft 432 kts 14°
2026-05-07 19:26 43.02956 8.82692 17844 ft 435 kts 13°
2026-05-07 19:26 43.05894 8.83763 18304 ft 438 kts 13°
2026-05-07 19:26 43.08860 8.84845 18727 ft 442 kts 13°
2026-05-07 19:26 43.11839 8.85932 19171 ft 444 kts 13°
2026-05-07 19:27 43.14839 8.87028 19601 ft 447 kts 13°
2026-05-07 19:27 43.17857 8.88132 20039 ft 450 kts 13°
2026-05-07 19:27 43.20865 8.89233 20468 ft 453 kts 13°
2026-05-07 19:27 43.23920 8.90352 20894 ft 456 kts 13°
2026-05-07 19:28 43.26995 8.91481 21324 ft 459 kts 12°
2026-05-07 19:28 43.30098 8.92620 21747 ft 463 kts 12°
2026-05-07 19:28 43.33221 8.93768 22176 ft 466 kts 12°
2026-05-07 19:28 43.36364 8.94925 22582 ft 469 kts 12°
2026-05-07 19:29 43.39492 8.96265 23002 ft 474 kts 18°
2026-05-07 19:29 43.42538 8.98072 23411 ft 478 kts 21°
2026-05-07 19:29 43.45599 8.99953 23781 ft 481 kts 21°
2026-05-07 19:29 43.48674 9.01822 24129 ft 484 kts 21°
2026-05-07 19:30 43.51728 9.03675 24452 ft 487 kts 21°
2026-05-07 19:30 43.54839 9.05564 24793 ft 490 kts 20°
2026-05-07 19:30 43.57971 9.07471 25116 ft 493 kts 20°
2026-05-07 19:30 43.61121 9.09393 25447 ft 496 kts 20°
2026-05-07 19:31 43.64290 9.11329 25760 ft 499 kts 20°
2026-05-07 19:31 43.67474 9.13278 26078 ft 502 kts 20°
2026-05-07 19:31 43.70683 9.15244 26378 ft 505 kts 20°
2026-05-07 19:31 43.73910 9.17224 26652 ft 508 kts 20°
2026-05-07 19:32 43.77144 9.19211 26899 ft 510 kts 20°
2026-05-07 19:32 43.80394 9.21209 27113 ft 512 kts 20°
2026-05-07 19:32 43.83658 9.23219 27309 ft 514 kts 19°
2026-05-07 19:32 43.86936 9.25241 27471 ft 515 kts 19°
2026-05-07 19:33 43.90176 9.27240 27621 ft 517 kts 19°
2026-05-07 19:33 43.93463 9.29272 27761 ft 518 kts 19°
2026-05-07 19:33 43.96760 9.31311 27854 ft 519 kts 19°
2026-05-07 19:33 44.00061 9.33355 27967 ft 520 kts 19°
2026-05-07 19:34 44.05570 9.36773 28114 ft 521 kts 19°
2026-05-07 19:34 44.12194 9.40891 28249 ft 521 kts 19°
2026-05-07 19:35 44.18829 9.45026 28358 ft 522 kts 19°
2026-05-07 19:35 44.25423 9.49146 28444 ft 523 kts 19°
2026-05-07 19:36 44.32085 9.53319 28574 ft 521 kts 19°
2026-05-07 19:36 44.38706 9.57479 28592 ft 522 kts 19°
2026-05-07 19:37 44.45304 9.61626 28625 ft 523 kts 19°
2026-05-07 19:37 44.51979 9.65628 28682 ft 521 kts 17°
2026-05-07 19:38 44.55330 9.67561 28784 ft 519 kts 17°
2026-05-07 19:38 44.58654 9.69489 29002 ft 515 kts 17°
2026-05-07 19:38 44.61956 9.71419 29225 ft 513 kts 17°
2026-05-07 19:38 44.65247 9.73350 29449 ft 512 kts 18°
2026-05-07 19:39 44.68530 9.75282 29693 ft 511 kts 18°
2026-05-07 19:39 44.71809 9.77217 29902 ft 511 kts 17°
2026-05-07 19:39 44.75088 9.79156 30125 ft 510 kts 18°
2026-05-07 19:39 44.78358 9.81091 30323 ft 510 kts 18°
2026-05-07 19:40 44.81597 9.83010 30510 ft 510 kts 18°
2026-05-07 19:40 44.84866 9.84948 30701 ft 510 kts 18°
2026-05-07 19:40 44.88134 9.86888 30906 ft 510 kts 18°
2026-05-07 19:40 44.91405 9.88834 31098 ft 510 kts 18°
2026-05-07 19:41 44.94675 9.90781 31291 ft 509 kts 18°
2026-05-07 19:41 44.97945 9.92729 31499 ft 509 kts 18°
2026-05-07 19:41 45.01209 9.94677 31703 ft 509 kts 18°
2026-05-07 19:41 45.04472 9.96627 31909 ft 508 kts 18°
2026-05-07 19:42 45.11003 10.00535 31956 ft 510 kts 18°
2026-05-07 19:42 45.17491 10.04428 31955 ft 509 kts 18°
2026-05-07 19:43 45.24004 10.08347 31958 ft 508 kts 18°
2026-05-07 19:43 45.30510 10.12270 31964 ft 508 kts 18°
2026-05-07 19:44 45.37016 10.16204 31968 ft 507 kts 18°
2026-05-07 19:44 45.43507 10.20139 31966 ft 506 kts 18°
2026-05-07 19:45 45.49960 10.24061 31966 ft 506 kts 18°
2026-05-07 19:45 45.56431 10.28004 31965 ft 506 kts 18°
2026-05-07 19:46 45.62912 10.31962 31978 ft 505 kts 18°
2026-05-07 19:46 45.69381 10.35924 31990 ft 505 kts 18°
2026-05-07 19:47 45.75801 10.39864 32004 ft 505 kts 18°
2026-05-07 19:47 45.82258 10.43856 32018 ft 504 kts 19°
2026-05-07 19:48 45.88622 10.48150 32030 ft 506 kts 20°
2026-05-07 19:48 45.94986 10.52507 32047 ft 506 kts 20°
2026-05-07 19:49 46.01345 10.56823 32066 ft 505 kts 20°
2026-05-07 19:49 46.07687 10.61125 32048 ft 500 kts 20°
2026-05-07 19:50 46.13959 10.65389 32060 ft 501 kts 20°
2026-05-07 19:50 46.20237 10.69669 32080 ft 498 kts 20°
2026-05-07 19:51 46.26519 10.73959 32084 ft 498 kts 20°
2026-05-07 19:51 46.32755 10.78233 32092 ft 497 kts 20°
2026-05-07 19:52 46.38991 10.82516 32088 ft 497 kts 20°
2026-05-07 19:52 46.45261 10.86829 32107 ft 498 kts 20°
2026-05-07 19:53 46.51537 10.91159 32107 ft 500 kts 20°
2026-05-07 19:53 46.57819 10.95507 32075 ft 499 kts 20°
2026-05-07 19:54 46.64087 10.99857 32063 ft 499 kts 20°
2026-05-07 19:54 46.70316 11.04191 32069 ft 497 kts 20°
2026-05-07 19:55 46.76574 11.08555 32051 ft 497 kts 20°
2026-05-07 19:55 46.81756 11.12174 32053 ft 494 kts 21°
2026-05-07 19:56 46.85595 11.14868 32066 ft 494 kts 20°
2026-05-07 19:56 46.91793 11.19051 32066 ft 490 kts 15°
2026-05-07 19:57 46.98335 11.21284 32072 ft 477 kts
2026-05-07 19:57 47.04952 11.22506 32071 ft 480 kts
2026-05-07 19:58 47.11544 11.23762 32073 ft 479 kts
2026-05-07 19:58 47.18131 11.25022 32047 ft 475 kts
2026-05-07 19:59 47.24682 11.25977 32036 ft 468 kts 355°
2026-05-07 19:59 47.31173 11.25701 32034 ft 467 kts 353°
2026-05-07 20:00 47.37634 11.25434 32031 ft 468 kts 354°
2026-05-07 20:00 47.44142 11.25287 32045 ft 467 kts 354°
2026-05-07 20:01 47.50659 11.25178 32040 ft 468 kts 355°
2026-05-07 20:01 47.57190 11.25069 32039 ft 469 kts 355°
2026-05-07 20:02 47.63678 11.24957 32043 ft 470 kts 355°
2026-05-07 20:02 47.70214 11.24842 32050 ft 470 kts 355°
2026-05-07 20:03 47.76763 11.24727 32061 ft 471 kts 355°
2026-05-07 20:03 47.83334 11.24613 32058 ft 471 kts 355°
2026-05-07 20:04 47.89863 11.24499 32055 ft 472 kts 355°
2026-05-07 20:04 47.96424 11.24383 32064 ft 472 kts 355°
2026-05-07 20:05 48.03001 11.24267 32070 ft 472 kts 356°
2026-05-07 20:05 48.09575 11.24151 32079 ft 472 kts 356°
2026-05-07 20:06 48.16159 11.24036 32081 ft 472 kts 356°
2026-05-07 20:06 48.22683 11.23922 32071 ft 472 kts 356°
2026-05-07 20:07 48.29266 11.23806 32074 ft 472 kts 356°
2026-05-07 20:07 48.35856 11.23689 32068 ft 473 kts 356°
2026-05-07 20:08 48.42436 11.23572 32071 ft 473 kts 356°
2026-05-07 20:08 48.49018 11.23454 32072 ft 473 kts 356°
2026-05-07 20:09 48.55566 11.23338 32078 ft 473 kts 356°
2026-05-07 20:10 48.65455 11.23160 32077 ft 473 kts 356°
2026-05-07 20:10 48.72055 11.23041 32076 ft 473 kts 356°
2026-05-07 20:11 48.78595 11.22923 32076 ft 473 kts 356°
2026-05-07 20:11 48.85192 11.22803 32075 ft 473 kts 356°
2026-05-07 20:12 48.91790 11.22683 32072 ft 473 kts 356°
2026-05-07 20:12 48.98381 11.22562 32074 ft 473 kts 356°
2026-05-07 20:13 49.04934 11.22442 32074 ft 473 kts 356°
2026-05-07 20:13 49.11527 11.22321 32070 ft 473 kts 356°
2026-05-07 20:14 49.18117 11.22200 32071 ft 473 kts 357°
2026-05-07 20:14 49.24698 11.22113 32073 ft 473 kts 358°
2026-05-07 20:15 49.31257 11.22191 32072 ft 473 kts 358°
2026-05-07 20:15 49.37846 11.22269 32078 ft 473 kts 358°
2026-05-07 20:16 49.44427 11.22327 32076 ft 472 kts 358°
2026-05-07 20:16 49.51002 11.22380 32081 ft 472 kts 358°
2026-05-07 20:17 49.57566 11.22430 32074 ft 472 kts 358°
2026-05-07 20:17 49.64086 11.22438 32072 ft 471 kts 358°
2026-05-07 20:18 49.70645 11.22446 32069 ft 471 kts 358°
2026-05-07 20:18 49.77136 11.23917 32064 ft 476 kts 18°
2026-05-07 20:18 49.80143 11.26089 32060 ft 479 kts 29°
2026-05-07 20:19 49.82879 11.29046 32055 ft 480 kts 35°
2026-05-07 20:19 49.88253 11.35229 32063 ft 480 kts 35°
2026-05-07 20:20 49.93619 11.41329 32062 ft 480 kts 34°
2026-05-07 20:20 49.99023 11.47454 32066 ft 480 kts 34°
2026-05-07 20:21 50.04416 11.53580 32072 ft 480 kts 35°
2026-05-07 20:21 50.09779 11.59691 32070 ft 479 kts 35°
2026-05-07 20:22 50.15154 11.65835 32077 ft 479 kts 35°
2026-05-07 20:22 50.20523 11.71988 32081 ft 478 kts 35°
2026-05-07 20:23 50.25881 11.78144 32080 ft 478 kts 35°
2026-05-07 20:23 50.31238 11.84319 32080 ft 477 kts 35°
2026-05-07 20:24 50.35675 11.89446 32077 ft 477 kts 35°
2026-05-07 20:24 50.41874 11.96630 32077 ft 476 kts 35°
2026-05-07 20:25 50.46306 12.01782 32077 ft 476 kts 35°
2026-05-07 20:25 50.51624 12.07978 32076 ft 475 kts 35°
2026-05-07 20:26 50.56937 12.14188 32082 ft 475 kts 35°
2026-05-07 20:26 50.62246 12.20410 32078 ft 475 kts 35°
2026-05-07 20:27 50.67504 12.26590 32084 ft 475 kts 35°
2026-05-07 20:27 50.72796 12.32828 32084 ft 474 kts 35°
2026-05-07 20:28 50.78083 12.39079 32091 ft 474 kts 35°
2026-05-07 20:28 50.83371 12.45349 32100 ft 474 kts 35°
2026-05-07 20:29 50.88639 12.51613 32103 ft 474 kts 36°
2026-05-07 20:29 50.93907 12.57895 32100 ft 474 kts 36°
2026-05-07 20:30 50.99170 12.64189 32102 ft 473 kts 36°
2026-05-07 20:30 51.04388 12.70448 32101 ft 473 kts 36°
2026-05-07 20:31 51.09644 12.76771 32096 ft 472 kts 36°
2026-05-07 20:31 51.14894 12.83105 32092 ft 472 kts 36°
2026-05-07 20:31 51.17512 12.86271 31954 ft 471 kts 36°
2026-05-07 20:32 51.20084 12.89386 31422 ft 469 kts 36°
2026-05-07 20:32 51.22674 12.92528 30597 ft 467 kts 36°
2026-05-07 20:32 51.25262 12.95672 29481 ft 466 kts 36°
2026-05-07 20:32 51.27819 12.98782 28757 ft 457 kts 36°
2026-05-07 20:33 51.30316 13.01825 28296 ft 445 kts 36°
2026-05-07 20:33 51.32757 13.04803 27694 ft 438 kts 36°
2026-05-07 20:33 51.35164 13.07743 27097 ft 432 kts 36°
2026-05-07 20:33 51.37531 13.10638 26505 ft 426 kts 36°
2026-05-07 20:34 51.39872 13.13505 25911 ft 420 kts 36°
2026-05-07 20:34 51.42184 13.16339 25349 ft 415 kts 36°
2026-05-07 20:34 51.44458 13.19131 24777 ft 410 kts 36°
2026-05-07 20:34 51.46679 13.21862 24215 ft 405 kts 36°
2026-05-07 20:35 51.48909 13.24607 23643 ft 401 kts 36°
2026-05-07 20:35 51.51105 13.27313 23029 ft 395 kts 36°
2026-05-07 20:35 51.53265 13.29977 22515 ft 388 kts 36°
2026-05-07 20:35 51.55389 13.32601 21950 ft 382 kts 36°
2026-05-07 20:36 51.57479 13.35185 21417 ft 375 kts 37°
2026-05-07 20:36 51.59535 13.37730 20877 ft 370 kts 37°
2026-05-07 20:36 51.61608 13.40299 20350 ft 389 kts 37°
2026-05-07 20:36 51.63817 13.43037 19761 ft 408 kts 37°
2026-05-07 20:37 51.66080 13.45848 19177 ft 413 kts 37°
2026-05-07 20:37 51.68352 13.48677 18575 ft 412 kts 37°
2026-05-07 20:37 51.70612 13.51495 17928 ft 406 kts 37°
2026-05-07 20:37 51.72820 13.54251 17334 ft 395 kts 37°
2026-05-07 20:38 51.74966 13.56936 16775 ft 385 kts 37°
2026-05-07 20:38 51.77060 13.59556 16204 ft 376 kts 37°
2026-05-07 20:38 51.79081 13.62087 15687 ft 367 kts 37°
2026-05-07 20:38 51.81078 13.64592 15446 ft 351 kts 37°
2026-05-07 20:39 51.82957 13.66951 14997 ft 343 kts 37°
2026-05-07 20:39 51.84843 13.69318 14287 ft 343 kts 38°
2026-05-07 20:39 51.86721 13.71677 13552 ft 339 kts 38°
2026-05-07 20:39 51.88569 13.74002 12787 ft 334 kts 38°
2026-05-07 20:40 51.90452 13.76180 12004 ft 330 kts 28°
2026-05-07 20:40 51.92614 13.77305 11291 ft 327 kts
2026-05-07 20:40 51.94873 13.77092 10580 ft 327 kts 346°
2026-05-07 20:40 51.96965 13.75790 9892 ft 326 kts 336°
2026-05-07 20:41 51.99013 13.74323 9114 ft 316 kts 336°
2026-05-07 20:41 52.01000 13.72923 8360 ft 307 kts 337°
2026-05-07 20:41 52.02919 13.71595 7963 ft 287 kts 338°
2026-05-07 20:41 52.04614 13.70229 7931 ft 257 kts 329°
2026-05-07 20:42 52.06011 13.68552 7947 ft 248 kts 320°
2026-05-07 20:42 52.07290 13.66662 7946 ft 248 kts 319°
2026-05-07 20:42 52.08571 13.64790 7881 ft 248 kts 319°
2026-05-07 20:42 52.09675 13.62662 7775 ft 248 kts 298°
2026-05-07 20:43 52.10134 13.59965 7709 ft 249 kts 276°
2026-05-07 20:43 52.10306 13.57148 7618 ft 250 kts 276°
2026-05-07 20:43 52.10482 13.54330 7531 ft 249 kts 276°
2026-05-07 20:43 52.10673 13.51557 7442 ft 249 kts 277°
2026-05-07 20:44 52.10882 13.48726 7353 ft 249 kts 277°
2026-05-07 20:44 52.11093 13.45954 7267 ft 249 kts 277°
2026-05-07 20:44 52.11307 13.43160 7183 ft 249 kts 277°
2026-05-07 20:44 52.11521 13.40369 7095 ft 249 kts 277°
2026-05-07 20:45 52.11735 13.37565 6998 ft 248 kts 277°
2026-05-07 20:45 52.12089 13.34831 6905 ft 247 kts 291°
2026-05-07 20:45 52.12949 13.32424 6834 ft 245 kts 310°
2026-05-07 20:45 52.14001 13.30274 6746 ft 246 kts 310°
2026-05-07 20:46 52.15052 13.28091 6659 ft 245 kts 309°
2026-05-07 20:46 52.16091 13.25887 6574 ft 245 kts 309°
2026-05-07 20:46 52.17121 13.23669 6491 ft 245 kts 309°
2026-05-07 20:46 52.18137 13.21444 6390 ft 244 kts 307°
2026-05-07 20:47 52.18768 13.18879 6284 ft 247 kts 279°
2026-05-07 20:47 52.18608 13.16099 6275 ft 248 kts 253°
2026-05-07 20:47 52.17957 13.13492 6256 ft 248 kts 244°
2026-05-07 20:47 52.17194 13.10978 6227 ft 247 kts 243°
2026-05-07 20:48 52.16460 13.08485 6210 ft 247 kts 245°
2026-05-07 20:48 52.15766 13.05921 6186 ft 247 kts 246°
2026-05-07 20:48 52.15112 13.03338 6151 ft 246 kts 248°
2026-05-07 20:48 52.14477 13.00739 6139 ft 247 kts 248°
2026-05-07 20:49 52.13851 12.98141 6124 ft 246 kts 248°
2026-05-07 20:49 52.13225 12.95543 6101 ft 246 kts 248°
2026-05-07 20:49 52.12598 12.92951 6085 ft 246 kts 248°
2026-05-07 20:49 52.11969 12.90364 6058 ft 246 kts 248°
2026-05-07 20:50 52.11337 12.87774 6045 ft 245 kts 248°
2026-05-07 20:50 52.10715 12.85225 6006 ft 245 kts 248°
2026-05-07 20:50 52.10085 12.82649 6002 ft 245 kts 248°
2026-05-07 20:50 52.09453 12.80067 6004 ft 245 kts 248°
2026-05-07 20:51 52.08820 12.77484 6004 ft 246 kts 248°
2026-05-07 20:51 52.08186 12.74904 6009 ft 245 kts 248°
2026-05-07 20:51 52.07642 12.72301 5994 ft 237 kts 261°
2026-05-07 20:51 52.07773 12.69723 6008 ft 233 kts 290°
2026-05-07 20:52 52.08651 12.67561 6004 ft 230 kts 320°
2026-05-07 20:52 52.10036 12.66332 6004 ft 227 kts 342°
2026-05-07 20:52 52.11544 12.65580 6006 ft 227 kts 347°
2026-05-07 20:52 52.13062 12.64871 6007 ft 226 kts 346°
2026-05-07 20:53 52.14590 12.64748 6001 ft 213 kts 14°
2026-05-07 20:53 52.15825 12.65771 6006 ft 190 kts 42°
2026-05-07 20:53 52.16791 12.67209 6011 ft 191 kts 45°
2026-05-07 20:53 52.17561 12.68945 6005 ft 188 kts 65°
2026-05-07 20:54 52.18021 12.70940 6002 ft 188 kts 71°
2026-05-07 20:54 52.18474 12.72945 6008 ft 188 kts 70°
2026-05-07 20:54 52.18941 12.74907 6008 ft 188 kts 69°
2026-05-07 20:54 52.19415 12.76838 5888 ft 178 kts 69°
2026-05-07 20:55 52.19917 12.78874 5056 ft 203 kts 68°
2026-05-07 20:55 52.20423 12.80886 5102 ft 181 kts 67°
2026-05-07 20:55 52.20879 12.82656 5140 ft 160 kts 68°
2026-05-07 20:55 52.21279 12.84404 5122 ft 173 kts 71°
2026-05-07 20:56 52.21689 12.86313 5148 ft 182 kts 69°
2026-05-07 20:56 52.22212 12.88257 5048 ft 190 kts 67°
2026-05-07 20:56 52.22729 12.90258 4900 ft 191 kts 68°
2026-05-07 20:56 52.23221 12.92260 4763 ft 188 kts 69°
2026-05-07 20:57 52.23687 12.94225 4616 ft 183 kts 57°
2026-05-07 20:57 52.24141 12.96118 4520 ft 174 kts 59°
2026-05-07 20:57 52.24586 12.97954 4394 ft 180 kts 57°
2026-05-07 20:57 52.25054 12.99866 4433 ft 183 kts 62°
2026-05-07 20:58 52.25540 13.01812 4430 ft 189 kts 64°
2026-05-07 20:58 52.26034 13.03816 4504 ft 189 kts 66°
2026-05-07 20:58 52.26524 13.05797 4649 ft 186 kts 65°
2026-05-07 20:58 52.27032 13.07749 4608 ft 189 kts 67°
2026-05-07 20:59 52.27516 13.09758 4540 ft 191 kts 64°
2026-05-07 20:59 52.28028 13.11755 4566 ft 189 kts 68°
2026-05-07 20:59 52.28509 13.13721 4584 ft 188 kts 69°
2026-05-07 20:59 52.28988 13.15708 4593 ft 187 kts 69°
2026-05-07 21:00 52.29491 13.17643 4523 ft 183 kts 63°
2026-05-07 21:00 52.30014 13.19565 4272 ft 187 kts 69°
2026-05-07 21:00 52.30432 13.21581 3881 ft 187 kts 70°
2026-05-07 21:00 52.30842 13.23574 3434 ft 186 kts 69°
2026-05-07 21:01 52.31267 13.25544 2971 ft 179 kts 70°
2026-05-07 21:01 52.31723 13.27387 2672 ft 169 kts 65°
2026-05-07 21:01 52.32203 13.29046 2518 ft 153 kts 67°
2026-05-07 21:01 52.32566 13.30589 2302 ft 139 kts 71°
2026-05-07 21:02 52.32865 13.32057 2140 ft 139 kts 71°
2026-05-07 21:02 52.33193 13.33567 2136 ft 141 kts 70°
2026-05-07 21:02 52.33525 13.35077 2172 ft 142 kts 71°
2026-05-07 21:02 52.33897 13.36633 1989 ft 151 kts 65°
2026-05-07 21:03 52.34355 13.38266 1686 ft 159 kts 67°
2026-05-07 21:03 52.34748 13.39921 1407 ft 159 kts 69°
2026-05-07 21:03 52.35133 13.41606 1124 ft 154 kts 69°
2026-05-07 21:03 52.35509 13.43252 869 ft 157 kts 69°
2026-05-07 21:04 52.35914 13.44919 647 ft 158 kts 68°
2026-05-07 21:04 52.36316 13.46595 434 ft 159 kts 68°
2026-05-07 21:04 52.36717 13.48281 244 ft 156 kts 68°
2026-05-07 21:04 52.37080 13.49808 165 ft 117 kts 68°
2026-05-07 21:05 52.37272 13.50611 162 ft 37 kts 69°
2026-05-07 21:05 52.37310 13.50921 164 ft 21 kts 89°
2026-05-07 21:05 52.37308 13.51105 166 ft 0 kts 95°
2026-05-07 21:05 52.37307 13.51110 166 ft 3 kts 97°
2026-05-07 21:06 52.37297 13.51169 167 ft 6 kts 105°
2026-05-07 21:06 52.37288 13.51220 168 ft 0 kts 105°
2026-05-07 21:07 52.37283 13.51251 168 ft 7 kts 105°
2026-05-07 21:08 52.37254 13.51342 167 ft 11 kts 130°
2026-05-07 21:08 52.37204 13.51309 165 ft 8 kts 234°
2026-05-07 21:08 52.37174 13.51214 165 ft 11 kts 245°
2026-05-07 21:08 52.37141 13.51094 165 ft 13 kts 246°
2026-05-07 21:09 52.37117 13.51003 165 ft 14 kts 248°
2026-05-07 21:09 52.37083 13.50850 165 ft 15 kts 250°
2026-05-07 21:09 52.37034 13.50615 163 ft 18 kts 252°
2026-05-07 21:09 52.36990 13.50412 161 ft 20 kts 249°
2026-05-07 21:10 52.36959 13.50282 160 ft 17 kts 249°
2026-05-07 21:10 52.36925 13.50141 158 ft 12 kts 248°
2026-05-07 21:10 52.36878 13.50012 154 ft 14 kts 214°
2026-05-07 21:10 52.36777 13.50031 154 ft 15 kts 164°
2026-05-07 21:11 52.36680 13.50090 155 ft 16 kts 159°
2026-05-07 21:11 52.36575 13.50161 155 ft 16 kts 156°
2026-05-07 21:11 52.36530 13.50193 155 ft 4 kts 156°
2026-05-07 21:12 52.36496 13.50215 155 ft 7 kts 160°
2026-05-07 21:12 52.36444 13.50245 155 ft 9 kts 160°
2026-05-07 21:12 52.36377 13.50285 155 ft 11 kts 160°
2026-05-07 21:12 52.36317 13.50367 156 ft 12 kts 122°
2026-05-07 21:13 52.36281 13.50486 158 ft 11 kts 122°
2026-05-07 21:13 52.36228 13.50543 159 ft 6 kts 131°
2026-05-07 21:13 52.36226 13.50596 160 ft 2 kts 90°
2026-05-07 21:13 52.36227 13.50619 159 ft 3 kts 88°
2026-05-07 21:14 52.36235 13.50669 160 ft 5 kts 69°
2026-05-07 21:14 52.36242 13.50698 160 ft 0 kts 70°